LOCATION_NAME,SAMPLE COLLECTION TIME,DOSE EQUIVALENT RATE (nSv/h),GAMMA COUNT RATE R02 (CPM),GAMMA COUNT RATE R03 (CPM),GAMMA COUNT RATE R04 (CPM),GAMMA COUNT RATE R05 (CPM),GAMMA COUNT RATE R06 (CPM),GAMMA COUNT RATE R07 (CPM),GAMMA COUNT RATE R08 (CPM),GAMMA COUNT RATE R09 (CPM),STATUS
WI: MADISON,01/19/2021 19:57:00,48.00,1672.00,973.00,287.00,154.00,94.00,116.00,76.00,33.00,APPROVED
WI: MADISON,01/19/2021 20:57:00,50.00,1732.00,1046.00,302.00,172.00,105.00,130.00,81.00,35.00,APPROVED
WI: MADISON,01/22/2021 19:12:00,44.00,1485.00,820.00,249.00,125.00,86.00,101.00,65.00,32.00,APPROVED
WI: MADISON,01/27/2021 21:58:00,41.00,1409.00,774.00,235.00,119.00,80.00,97.00,63.00,30.00,APPROVED
WI: MADISON,01/27/2021 23:59:00,42.00,1432.00,791.00,235.00,121.00,82.00,99.00,64.00,31.00,APPROVED
WI: MADISON,01/28/2021 00:59:00,41.00,1427.00,784.00,242.00,120.00,82.00,98.00,62.00,32.00,APPROVED
WI: MADISON,01/28/2021 01:59:00,41.00,1430.00,796.00,241.00,122.00,81.00,99.00,62.00,31.00,APPROVED
WI: MADISON,01/28/2021 02:59:00,44.00,1431.00,785.00,238.00,121.00,81.00,97.00,63.00,31.00,APPROVED
WI: MADISON,01/28/2021 04:00:00,41.00,1431.00,794.00,239.00,120.00,83.00,102.00,61.00,31.00,APPROVED
WI: MADISON,01/28/2021 05:00:00,42.00,1432.00,800.00,240.00,122.00,81.00,101.00,60.00,31.00,APPROVED
WI: MADISON,01/28/2021 06:00:00,41.00,1431.00,792.00,242.00,121.00,82.00,101.00,59.00,31.00,APPROVED
WI: MADISON,01/28/2021 07:00:00,42.00,1442.00,798.00,244.00,123.00,80.00,101.00,61.00,30.00,APPROVED
WI: MADISON,01/28/2021 08:01:00,42.00,1442.00,804.00,241.00,123.00,82.00,104.00,62.00,30.00,APPROVED
WI: MADISON,01/28/2021 09:01:00,41.00,1443.00,807.00,246.00,124.00,82.00,103.00,62.00,31.00,APPROVED
WI: MADISON,01/28/2021 10:01:00,42.00,1432.00,805.00,244.00,128.00,82.00,103.00,61.00,31.00,APPROVED
WI: MADISON,01/28/2021 11:01:00,42.00,1444.00,796.00,247.00,122.00,84.00,105.00,58.00,30.00,APPROVED
WI: MADISON,01/28/2021 12:01:00,41.00,1450.00,817.00,248.00,123.00,83.00,106.00,61.00,31.00,APPROVED
WI: MADISON,01/28/2021 13:02:00,43.00,1455.00,815.00,250.00,125.00,86.00,107.00,59.00,32.00,APPROVED
WI: MADISON,01/28/2021 14:02:00,43.00,1459.00,817.00,254.00,124.00,85.00,106.00,60.00,31.00,APPROVED
WI: MADISON,01/28/2021 15:02:00,42.00,1454.00,815.00,247.00,124.00,85.00,108.00,61.00,31.00,APPROVED
WI: MADISON,01/28/2021 16:02:00,40.00,1441.00,803.00,243.00,122.00,83.00,103.00,62.00,31.00,APPROVED
WI: MADISON,01/28/2021 17:02:00,41.00,1436.00,798.00,245.00,124.00,85.00,98.00,62.00,31.00,APPROVED
WI: MADISON,01/28/2021 18:03:00,41.00,1443.00,804.00,239.00,122.00,83.00,100.00,64.00,30.00,APPROVED
WI: MADISON,01/28/2021 19:03:00,41.00,1441.00,802.00,240.00,121.00,82.00,101.00,66.00,31.00,APPROVED
WI: MADISON,01/28/2021 20:03:00,41.00,1441.00,797.00,244.00,125.00,81.00,97.00,67.00,31.00,APPROVED
WI: MADISON,01/28/2021 21:03:00,41.00,1447.00,805.00,241.00,126.00,84.00,99.00,67.00,31.00,APPROVED
WI: MADISON,01/28/2021 22:04:00,40.00,1449.00,806.00,246.00,127.00,83.00,98.00,66.00,32.00,APPROVED
WI: MADISON,01/28/2021 23:04:00,42.00,1451.00,804.00,240.00,127.00,83.00,100.00,66.00,32.00,APPROVED
WI: MADISON,01/29/2021 00:04:00,42.00,1463.00,807.00,245.00,123.00,82.00,99.00,65.00,30.00,APPROVED
WI: MADISON,01/29/2021 01:04:00,43.00,1484.00,823.00,249.00,127.00,83.00,104.00,65.00,30.00,APPROVED
WI: MADISON,01/29/2021 02:04:00,42.00,1490.00,829.00,251.00,126.00,85.00,104.00,66.00,32.00,APPROVED
WI: MADISON,01/29/2021 03:05:00,43.00,1493.00,841.00,253.00,131.00,87.00,106.00,66.00,33.00,APPROVED
WI: MADISON,01/29/2021 04:05:00,43.00,1502.00,860.00,259.00,132.00,86.00,107.00,67.00,34.00,APPROVED
WI: MADISON,01/29/2021 05:05:00,43.00,1514.00,868.00,263.00,136.00,88.00,110.00,66.00,32.00,APPROVED
WI: MADISON,01/29/2021 06:05:00,44.00,1530.00,882.00,267.00,138.00,87.00,110.00,68.00,34.00,APPROVED
WI: MADISON,01/29/2021 07:05:00,42.00,1530.00,894.00,265.00,143.00,90.00,113.00,70.00,35.00,APPROVED
WI: MADISON,01/29/2021 08:06:00,44.00,1532.00,898.00,270.00,144.00,90.00,115.00,70.00,33.00,APPROVED
WI: MADISON,01/29/2021 09:06:00,43.00,1534.00,888.00,270.00,141.00,89.00,115.00,68.00,32.00,APPROVED
WI: MADISON,01/29/2021 10:06:00,43.00,1552.00,915.00,278.00,147.00,92.00,120.00,71.00,34.00,APPROVED
WI: MADISON,01/29/2021 11:06:00,44.00,1595.00,965.00,289.00,155.00,96.00,127.00,73.00,34.00,APPROVED
WI: MADISON,01/29/2021 12:06:00,44.00,1598.00,983.00,300.00,160.00,98.00,127.00,74.00,35.00,APPROVED
WI: MADISON,01/29/2021 13:07:00,43.00,1603.00,975.00,298.00,160.00,98.00,130.00,75.00,34.00,APPROVED
WI: MADISON,01/29/2021 14:07:00,45.00,1604.00,985.00,303.00,155.00,98.00,130.00,71.00,35.00,APPROVED
WI: MADISON,01/29/2021 15:07:00,43.00,1584.00,959.00,295.00,156.00,100.00,128.00,74.00,35.00,APPROVED
WI: MADISON,01/29/2021 16:07:00,46.00,1588.00,955.00,292.00,155.00,97.00,125.00,75.00,35.00,APPROVED
WI: MADISON,01/29/2021 17:08:00,46.00,1584.00,965.00,288.00,159.00,95.00,122.00,75.00,35.00,APPROVED
WI: MADISON,01/29/2021 18:08:00,43.00,1548.00,918.00,271.00,155.00,91.00,119.00,74.00,32.00,APPROVED
WI: MADISON,01/29/2021 19:08:00,42.00,1504.00,885.00,265.00,143.00,90.00,110.00,72.00,32.00,APPROVED
WI: MADISON,01/29/2021 20:08:00,44.00,1513.00,866.00,260.00,140.00,87.00,109.00,71.00,33.00,APPROVED
WI: MADISON,01/29/2021 21:08:00,45.00,1501.00,863.00,255.00,137.00,87.00,108.00,70.00,32.00,APPROVED
WI: MADISON,01/29/2021 22:09:00,42.00,1474.00,838.00,254.00,137.00,85.00,105.00,67.00,30.00,APPROVED
WI: MADISON,01/29/2021 23:09:00,43.00,1471.00,831.00,246.00,130.00,85.00,102.00,68.00,31.00,APPROVED
WI: MADISON,01/30/2021 00:09:00,44.00,1483.00,836.00,246.00,131.00,85.00,104.00,69.00,31.00,APPROVED
WI: MADISON,01/30/2021 01:09:00,42.00,1479.00,832.00,253.00,130.00,84.00,104.00,69.00,31.00,APPROVED
WI: MADISON,01/30/2021 02:09:00,43.00,1480.00,834.00,249.00,131.00,85.00,102.00,67.00,31.00,APPROVED
WI: MADISON,01/30/2021 03:10:00,43.00,1464.00,827.00,252.00,128.00,85.00,105.00,66.00,32.00,APPROVED
WI: MADISON,01/30/2021 04:10:00,43.00,1472.00,822.00,249.00,129.00,83.00,103.00,67.00,30.00,APPROVED
WI: MADISON,01/30/2021 05:10:00,41.00,1477.00,833.00,249.00,131.00,83.00,104.00,68.00,30.00,APPROVED
WI: MADISON,01/30/2021 06:10:00,40.00,1483.00,837.00,252.00,132.00,87.00,105.00,68.00,31.00,APPROVED
WI: MADISON,01/30/2021 07:10:00,43.00,1480.00,829.00,251.00,131.00,83.00,106.00,69.00,32.00,APPROVED
WI: MADISON,01/30/2021 08:11:00,43.00,1481.00,840.00,252.00,131.00,85.00,107.00,69.00,32.00,APPROVED
WI: MADISON,01/30/2021 09:11:00,43.00,1489.00,841.00,251.00,134.00,86.00,103.00,68.00,30.00,APPROVED
WI: MADISON,01/30/2021 10:11:00,42.00,1486.00,839.00,252.00,131.00,85.00,103.00,67.00,33.00,APPROVED
WI: MADISON,01/30/2021 11:11:00,43.00,1487.00,853.00,253.00,135.00,85.00,106.00,69.00,31.00,APPROVED
WI: MADISON,01/30/2021 12:12:00,45.00,1482.00,852.00,251.00,137.00,86.00,104.00,70.00,33.00,APPROVED
WI: MADISON,01/30/2021 13:12:00,43.00,1489.00,850.00,251.00,136.00,86.00,105.00,70.00,30.00,APPROVED
WI: MADISON,01/30/2021 14:12:00,43.00,1479.00,852.00,248.00,132.00,87.00,106.00,70.00,32.00,APPROVED
WI: MADISON,01/30/2021 15:12:00,43.00,1487.00,852.00,253.00,137.00,87.00,105.00,68.00,32.00,APPROVED
WI: MADISON,01/30/2021 16:12:00,46.00,1476.00,839.00,254.00,135.00,87.00,106.00,69.00,31.00,APPROVED
WI: MADISON,01/30/2021 17:13:00,42.00,1460.00,827.00,244.00,133.00,86.00,101.00,68.00,32.00,APPROVED
WI: MADISON,01/30/2021 18:13:00,43.00,1477.00,849.00,248.00,134.00,86.00,103.00,69.00,33.00,APPROVED
WI: MADISON,01/30/2021 19:13:00,44.00,1476.00,840.00,248.00,136.00,85.00,104.00,70.00,31.00,APPROVED
WI: MADISON,01/30/2021 20:13:00,44.00,1492.00,851.00,254.00,133.00,86.00,104.00,69.00,32.00,APPROVED
WI: MADISON,01/30/2021 21:13:00,43.00,1520.00,874.00,258.00,139.00,85.00,109.00,70.00,32.00,APPROVED
WI: MADISON,01/30/2021 22:14:00,44.00,1524.00,876.00,258.00,144.00,89.00,112.00,73.00,33.00,APPROVED
WI: MADISON,01/30/2021 23:14:00,46.00,1521.00,881.00,261.00,145.00,88.00,110.00,72.00,33.00,APPROVED
WI: MADISON,01/31/2021 00:14:00,47.00,1601.00,953.00,286.00,156.00,97.00,120.00,76.00,34.00,APPROVED
WI: MADISON,01/31/2021 01:14:00,51.00,1673.00,1023.00,303.00,173.00,97.00,128.00,81.00,33.00,APPROVED
WI: MADISON,01/31/2021 02:15:00,51.00,1800.00,1134.00,330.00,189.00,108.00,140.00,87.00,37.00,APPROVED
WI: MADISON,01/31/2021 03:15:00,54.00,1902.00,1210.00,349.00,207.00,112.00,148.00,90.00,38.00,APPROVED
WI: MADISON,01/31/2021 04:15:00,52.00,1812.00,1127.00,333.00,194.00,108.00,145.00,87.00,36.00,APPROVED
WI: MADISON,01/31/2021 05:15:00,51.00,1727.00,1070.00,316.00,183.00,103.00,135.00,83.00,36.00,APPROVED
WI: MADISON,01/31/2021 06:15:00,51.00,1713.00,1045.00,323.00,170.00,100.00,136.00,79.00,34.00,APPROVED
WI: MADISON,01/31/2021 07:16:00,46.00,1562.00,917.00,286.00,149.00,92.00,121.00,70.00,33.00,APPROVED
WI: MADISON,01/31/2021 08:16:00,44.00,1488.00,847.00,260.00,134.00,86.00,107.00,69.00,32.00,APPROVED
WI: MADISON,01/31/2021 09:16:00,44.00,1477.00,847.00,259.00,129.00,86.00,108.00,62.00,31.00,APPROVED
WI: MADISON,01/31/2021 10:16:00,44.00,1483.00,847.00,261.00,137.00,85.00,109.00,67.00,32.00,APPROVED
WI: MADISON,01/31/2021 11:16:00,46.00,1516.00,870.00,263.00,142.00,87.00,111.00,70.00,31.00,APPROVED
WI: MADISON,01/31/2021 12:17:00,44.00,1500.00,863.00,257.00,139.00,88.00,109.00,70.00,32.00,APPROVED
WI: MADISON,01/31/2021 13:17:00,45.00,1487.00,866.00,260.00,139.00,86.00,107.00,69.00,32.00,APPROVED
WI: MADISON,01/31/2021 14:17:00,43.00,1469.00,840.00,254.00,141.00,84.00,105.00,69.00,32.00,APPROVED
WI: MADISON,01/31/2021 15:17:00,41.00,1424.00,803.00,246.00,129.00,84.00,103.00,67.00,33.00,APPROVED
WI: MADISON,01/31/2021 16:17:00,42.00,1365.00,766.00,231.00,121.00,78.00,96.00,65.00,31.00,APPROVED
WI: MADISON,01/31/2021 17:18:00,42.00,1371.00,748.00,224.00,117.00,78.00,93.00,63.00,29.00,APPROVED
WI: MADISON,01/31/2021 18:18:00,40.00,1349.00,744.00,225.00,112.00,75.00,93.00,63.00,30.00,APPROVED
WI: MADISON,01/31/2021 19:18:00,41.00,1359.00,754.00,225.00,120.00,78.00,92.00,62.00,30.00,APPROVED
WI: MADISON,01/31/2021 20:18:00,43.00,1377.00,767.00,229.00,122.00,78.00,98.00,63.00,30.00,APPROVED
WI: MADISON,01/31/2021 21:19:00,44.00,1391.00,787.00,235.00,125.00,80.00,99.00,63.00,30.00,APPROVED
WI: MADISON,01/31/2021 22:19:00,43.00,1419.00,802.00,240.00,128.00,82.00,100.00,64.00,31.00,APPROVED
WI: MADISON,01/31/2021 23:19:00,43.00,1399.00,786.00,233.00,124.00,80.00,101.00,64.00,30.00,APPROVED
WI: MADISON,02/01/2021 00:19:00,41.00,1382.00,774.00,234.00,125.00,78.00,100.00,62.00,30.00,APPROVED
WI: MADISON,02/01/2021 01:19:00,40.00,1374.00,768.00,229.00,123.00,75.00,96.00,64.00,31.00,APPROVED
WI: MADISON,02/01/2021 02:20:00,39.00,1345.00,741.00,225.00,117.00,79.00,93.00,62.00,30.00,APPROVED
WI: MADISON,02/01/2021 03:20:00,40.00,1339.00,737.00,226.00,116.00,77.00,92.00,61.00,29.00,APPROVED
WI: MADISON,02/01/2021 04:20:00,37.00,1335.00,737.00,222.00,115.00,75.00,94.00,61.00,29.00,APPROVED
WI: MADISON,02/01/2021 05:20:00,40.00,1333.00,730.00,221.00,115.00,77.00,92.00,62.00,30.00,APPROVED
WI: MADISON,02/01/2021 06:20:00,42.00,1341.00,735.00,225.00,114.00,76.00,91.00,63.00,30.00,APPROVED
WI: MADISON,02/01/2021 07:21:00,40.00,1342.00,741.00,226.00,112.00,76.00,92.00,61.00,30.00,APPROVED
WI: MADISON,02/01/2021 08:21:00,39.00,1347.00,752.00,227.00,117.00,77.00,93.00,62.00,31.00,APPROVED
WI: MADISON,02/01/2021 09:21:00,40.00,1350.00,749.00,230.00,117.00,78.00,95.00,62.00,30.00,APPROVED
WI: MADISON,02/01/2021 10:21:00,39.00,1362.00,760.00,231.00,119.00,77.00,97.00,62.00,30.00,APPROVED
WI: MADISON,02/01/2021 11:21:00,43.00,1366.00,770.00,235.00,122.00,79.00,97.00,63.00,30.00,APPROVED
WI: MADISON,02/01/2021 12:22:00,41.00,1366.00,769.00,238.00,120.00,81.00,99.00,61.00,29.00,APPROVED
WI: MADISON,02/01/2021 13:22:00,42.00,1362.00,766.00,234.00,122.00,80.00,98.00,62.00,30.00,APPROVED
WI: MADISON,02/01/2021 14:22:00,41.00,1357.00,763.00,233.00,117.00,79.00,96.00,62.00,29.00,APPROVED
WI: MADISON,02/01/2021 15:22:00,41.00,1348.00,752.00,229.00,118.00,77.00,95.00,60.00,32.00,APPROVED
WI: MADISON,02/01/2021 16:22:00,40.00,1338.00,742.00,231.00,120.00,76.00,94.00,61.00,31.00,APPROVED
WI: MADISON,02/01/2021 17:23:00,39.00,1348.00,744.00,226.00,118.00,76.00,93.00,61.00,31.00,APPROVED
WI: MADISON,02/01/2021 18:23:00,41.00,1341.00,741.00,223.00,117.00,74.00,94.00,63.00,30.00,APPROVED
WI: MADISON,02/01/2021 19:23:00,41.00,1333.00,741.00,221.00,118.00,76.00,92.00,62.00,31.00,APPROVED
WI: MADISON,02/01/2021 20:23:00,42.00,1332.00,738.00,226.00,114.00,76.00,93.00,57.00,30.00,APPROVED
WI: MADISON,02/01/2021 21:24:00,41.00,1351.00,748.00,224.00,116.00,78.00,96.00,60.00,31.00,APPROVED
WI: MADISON,02/01/2021 22:24:00,40.00,1351.00,748.00,226.00,117.00,78.00,94.00,61.00,32.00,APPROVED
WI: MADISON,02/01/2021 23:24:00,40.00,1333.00,740.00,221.00,115.00,76.00,93.00,61.00,29.00,APPROVED
WI: MADISON,02/02/2021 00:24:00,43.00,1332.00,726.00,224.00,115.00,75.00,91.00,61.00,31.00,APPROVED
WI: MADISON,02/02/2021 01:24:00,40.00,1329.00,736.00,221.00,114.00,75.00,92.00,62.00,30.00,APPROVED
WI: MADISON,02/02/2021 02:25:00,40.00,1350.00,752.00,225.00,114.00,75.00,93.00,61.00,30.00,APPROVED
WI: MADISON,02/02/2021 03:25:00,41.00,1360.00,758.00,227.00,117.00,77.00,94.00,63.00,29.00,APPROVED
WI: MADISON,02/02/2021 04:25:00,42.00,1368.00,761.00,231.00,119.00,78.00,98.00,63.00,30.00,APPROVED
WI: MADISON,02/02/2021 05:25:00,40.00,1382.00,781.00,236.00,122.00,78.00,97.00,62.00,32.00,APPROVED
WI: MADISON,02/02/2021 06:25:00,41.00,1388.00,794.00,238.00,125.00,80.00,99.00,65.00,29.00,APPROVED
WI: MADISON,02/02/2021 07:26:00,38.00,1392.00,787.00,238.00,126.00,80.00,101.00,65.00,32.00,APPROVED
WI: MADISON,02/02/2021 08:26:00,40.00,1393.00,793.00,241.00,126.00,80.00,103.00,64.00,32.00,APPROVED
WI: MADISON,02/02/2021 09:26:00,40.00,1386.00,795.00,245.00,129.00,83.00,100.00,64.00,31.00,APPROVED
WI: MADISON,02/02/2021 10:26:00,43.00,1392.00,799.00,243.00,125.00,83.00,103.00,65.00,32.00,APPROVED
WI: MADISON,02/02/2021 11:26:00,40.00,1402.00,801.00,243.00,127.00,83.00,102.00,66.00,32.00,APPROVED
WI: MADISON,02/02/2021 12:27:00,41.00,1400.00,809.00,246.00,131.00,85.00,101.00,67.00,33.00,APPROVED
WI: MADISON,02/02/2021 13:27:00,42.00,1401.00,807.00,244.00,131.00,81.00,103.00,68.00,32.00,APPROVED
WI: MADISON,02/02/2021 14:27:00,41.00,1404.00,799.00,244.00,127.00,82.00,104.00,66.00,32.00,APPROVED
WI: MADISON,02/02/2021 15:27:00,43.00,1395.00,805.00,241.00,130.00,83.00,103.00,66.00,31.00,APPROVED
WI: MADISON,02/02/2021 16:28:00,41.00,1382.00,795.00,240.00,129.00,81.00,101.00,65.00,31.00,APPROVED
WI: MADISON,02/02/2021 17:28:00,40.00,1393.00,797.00,241.00,129.00,83.00,103.00,66.00,31.00,APPROVED
WI: MADISON,02/02/2021 18:28:00,41.00,1386.00,801.00,248.00,130.00,80.00,105.00,67.00,32.00,APPROVED
WI: MADISON,02/02/2021 19:22:00,42.00,1373.00,787.00,243.00,124.00,83.00,106.00,60.00,31.00,APPROVED
WI: MADISON,02/02/2021 20:14:00,41.00,1363.00,765.00,247.00,120.00,82.00,108.00,53.00,31.00,APPROVED
WI: MADISON,02/02/2021 21:21:00,41.00,1328.00,719.00,222.00,106.00,76.00,98.00,51.00,30.00,APPROVED
WI: MADISON,02/02/2021 22:21:00,40.00,1353.00,748.00,225.00,116.00,78.00,95.00,62.00,30.00,APPROVED
WI: MADISON,02/02/2021 23:21:00,41.00,1375.00,765.00,231.00,124.00,80.00,96.00,64.00,31.00,APPROVED
WI: MADISON,02/03/2021 00:21:00,42.00,1377.00,773.00,233.00,121.00,81.00,97.00,65.00,31.00,APPROVED
WI: MADISON,02/03/2021 01:21:00,41.00,1377.00,777.00,235.00,120.00,78.00,97.00,62.00,31.00,APPROVED
WI: MADISON,02/03/2021 02:22:00,42.00,1381.00,779.00,236.00,121.00,79.00,97.00,62.00,31.00,APPROVED
WI: MADISON,02/03/2021 03:22:00,41.00,1394.00,782.00,238.00,122.00,80.00,98.00,64.00,30.00,APPROVED
WI: MADISON,02/03/2021 04:22:00,42.00,1406.00,796.00,238.00,124.00,80.00,102.00,61.00,32.00,APPROVED
WI: MADISON,02/03/2021 05:22:00,41.00,1417.00,809.00,246.00,128.00,83.00,103.00,61.00,31.00,APPROVED
WI: MADISON,02/03/2021 06:22:00,44.00,1410.00,812.00,246.00,127.00,81.00,104.00,63.00,32.00,APPROVED
WI: MADISON,02/03/2021 07:23:00,42.00,1440.00,836.00,252.00,132.00,86.00,105.00,65.00,33.00,APPROVED
WI: MADISON,02/03/2021 08:23:00,42.00,1452.00,845.00,254.00,131.00,85.00,107.00,64.00,32.00,APPROVED
WI: MADISON,02/03/2021 09:23:00,43.00,1460.00,846.00,257.00,135.00,86.00,112.00,65.00,31.00,APPROVED
WI: MADISON,02/03/2021 10:23:00,43.00,1462.00,864.00,266.00,139.00,87.00,112.00,66.00,32.00,APPROVED
WI: MADISON,02/03/2021 11:24:00,42.00,1483.00,896.00,272.00,142.00,93.00,116.00,67.00,34.00,APPROVED
WI: MADISON,02/03/2021 12:24:00,45.00,1511.00,913.00,284.00,154.00,93.00,120.00,71.00,33.00,APPROVED
WI: MADISON,02/03/2021 13:24:00,41.00,1508.00,917.00,280.00,148.00,92.00,124.00,69.00,33.00,APPROVED
WI: MADISON,02/03/2021 14:24:00,44.00,1530.00,949.00,294.00,155.00,93.00,124.00,71.00,34.00,APPROVED
WI: MADISON,02/03/2021 15:24:00,42.00,1526.00,946.00,294.00,155.00,95.00,127.00,73.00,34.00,APPROVED
WI: MADISON,02/03/2021 16:25:00,43.00,1468.00,894.00,274.00,153.00,93.00,118.00,71.00,33.00,APPROVED
WI: MADISON,02/03/2021 17:25:00,43.00,1450.00,860.00,262.00,144.00,88.00,113.00,70.00,32.00,APPROVED
WI: MADISON,02/03/2021 18:25:00,43.00,1418.00,830.00,251.00,140.00,88.00,107.00,69.00,33.00,APPROVED
WI: MADISON,02/03/2021 19:25:00,43.00,1433.00,838.00,247.00,136.00,85.00,105.00,70.00,32.00,APPROVED
WI: MADISON,02/03/2021 20:25:00,42.00,1435.00,838.00,241.00,134.00,85.00,105.00,71.00,31.00,APPROVED
WI: MADISON,02/03/2021 21:26:00,44.00,1471.00,862.00,251.00,141.00,88.00,107.00,70.00,32.00,APPROVED
WI: MADISON,02/03/2021 22:26:00,45.00,1477.00,866.00,254.00,142.00,86.00,111.00,72.00,32.00,APPROVED
WI: MADISON,02/03/2021 23:26:00,41.00,1450.00,848.00,251.00,142.00,84.00,110.00,69.00,32.00,APPROVED
WI: MADISON,02/04/2021 00:26:00,42.00,1454.00,844.00,250.00,135.00,84.00,107.00,70.00,31.00,APPROVED
WI: MADISON,02/04/2021 01:26:00,41.00,1470.00,854.00,254.00,138.00,87.00,109.00,71.00,32.00,APPROVED
WI: MADISON,02/04/2021 02:27:00,42.00,1440.00,836.00,254.00,140.00,85.00,108.00,68.00,31.00,APPROVED
WI: MADISON,02/04/2021 03:27:00,42.00,1462.00,859.00,254.00,141.00,87.00,108.00,70.00,33.00,APPROVED
WI: MADISON,02/04/2021 04:27:00,43.00,1474.00,874.00,260.00,146.00,87.00,110.00,70.00,35.00,APPROVED
WI: MADISON,02/04/2021 05:27:00,42.00,1474.00,866.00,261.00,143.00,88.00,112.00,72.00,32.00,APPROVED
WI: MADISON,02/04/2021 06:28:00,43.00,1471.00,880.00,263.00,149.00,86.00,112.00,73.00,33.00,APPROVED
WI: MADISON,02/04/2021 07:28:00,42.00,1482.00,879.00,262.00,150.00,87.00,111.00,70.00,32.00,APPROVED
WI: MADISON,02/04/2021 08:28:00,43.00,1484.00,885.00,264.00,150.00,91.00,118.00,72.00,32.00,APPROVED
WI: MADISON,02/04/2021 09:28:00,43.00,1487.00,882.00,265.00,151.00,88.00,114.00,71.00,32.00,APPROVED
WI: MADISON,02/04/2021 10:28:00,43.00,1485.00,874.00,263.00,149.00,90.00,113.00,72.00,32.00,APPROVED
WI: MADISON,02/04/2021 11:29:00,45.00,1469.00,875.00,262.00,148.00,89.00,112.00,73.00,33.00,APPROVED
WI: MADISON,02/04/2021 12:29:00,43.00,1457.00,857.00,256.00,138.00,88.00,109.00,70.00,33.00,APPROVED
WI: MADISON,02/04/2021 13:29:00,44.00,1449.00,852.00,253.00,140.00,87.00,108.00,70.00,32.00,APPROVED
WI: MADISON,02/04/2021 14:29:00,45.00,1510.00,892.00,261.00,147.00,90.00,114.00,72.00,32.00,APPROVED
WI: MADISON,02/04/2021 15:29:00,47.00,1549.00,921.00,274.00,156.00,91.00,115.00,72.00,33.00,APPROVED
WI: MADISON,02/04/2021 16:30:00,47.00,1492.00,879.00,259.00,145.00,87.00,111.00,71.00,33.00,APPROVED
WI: MADISON,02/04/2021 17:30:00,46.00,1573.00,952.00,281.00,160.00,92.00,120.00,77.00,34.00,APPROVED
WI: MADISON,02/04/2021 18:30:00,51.00,1655.00,1033.00,302.00,176.00,98.00,129.00,80.00,34.00,APPROVED
WI: MADISON,02/04/2021 19:30:00,56.00,1913.00,1260.00,355.00,216.00,115.00,157.00,91.00,39.00,APPROVED
WI: MADISON,02/04/2021 20:31:00,64.00,2101.00,1411.00,398.00,255.00,129.00,174.00,102.00,41.00,APPROVED
WI: MADISON,02/04/2021 21:31:00,60.00,1990.00,1303.00,374.00,233.00,120.00,164.00,96.00,39.00,APPROVED
WI: MADISON,02/04/2021 22:31:00,57.00,1889.00,1218.00,355.00,223.00,113.00,154.00,92.00,39.00,APPROVED
WI: MADISON,02/04/2021 23:31:00,51.00,1702.00,1048.00,312.00,184.00,101.00,133.00,81.00,35.00,APPROVED
WI: MADISON,02/05/2021 00:31:00,52.00,1781.00,1142.00,320.00,200.00,107.00,145.00,87.00,36.00,APPROVED
WI: MADISON,02/05/2021 01:32:00,52.00,1875.00,1229.00,350.00,218.00,116.00,157.00,91.00,39.00,APPROVED
WI: MADISON,02/05/2021 02:32:00,51.00,1808.00,1188.00,348.00,220.00,114.00,154.00,90.00,39.00,APPROVED
WI: MADISON,02/05/2021 03:32:00,47.00,1675.00,1074.00,318.00,192.00,103.00,141.00,87.00,38.00,APPROVED
WI: MADISON,02/05/2021 04:32:00,44.00,1575.00,990.00,297.00,171.00,98.00,129.00,77.00,35.00,APPROVED
WI: MADISON,02/05/2021 05:32:00,45.00,1544.00,932.00,280.00,159.00,94.00,122.00,75.00,34.00,APPROVED
WI: MADISON,02/05/2021 06:33:00,44.00,1509.00,908.00,273.00,151.00,89.00,117.00,71.00,34.00,APPROVED
WI: MADISON,02/05/2021 07:33:00,45.00,1469.00,871.00,265.00,142.00,88.00,111.00,67.00,33.00,APPROVED
WI: MADISON,02/05/2021 08:33:00,43.00,1442.00,846.00,254.00,136.00,87.00,110.00,68.00,32.00,APPROVED
WI: MADISON,02/05/2021 09:33:00,43.00,1441.00,828.00,257.00,132.00,83.00,108.00,64.00,32.00,APPROVED
WI: MADISON,02/05/2021 10:33:00,44.00,1438.00,832.00,253.00,132.00,85.00,108.00,63.00,33.00,APPROVED
WI: MADISON,02/05/2021 11:34:00,43.00,1435.00,836.00,256.00,130.00,86.00,108.00,64.00,32.00,APPROVED
WI: MADISON,02/05/2021 12:34:00,44.00,1448.00,838.00,256.00,130.00,82.00,107.00,64.00,32.00,APPROVED
WI: MADISON,02/05/2021 13:34:00,44.00,1446.00,837.00,255.00,132.00,83.00,109.00,63.00,33.00,APPROVED
WI: MADISON,02/05/2021 14:34:00,43.00,1434.00,826.00,257.00,129.00,83.00,109.00,61.00,32.00,APPROVED
WI: MADISON,02/05/2021 15:35:00,43.00,1435.00,827.00,258.00,128.00,83.00,111.00,62.00,33.00,APPROVED
WI: MADISON,02/05/2021 16:35:00,43.00,1434.00,821.00,250.00,128.00,83.00,109.00,65.00,32.00,APPROVED
WI: MADISON,02/05/2021 17:23:00,41.00,1421.00,822.00,250.00,131.00,82.00,105.00,66.00,32.00,APPROVED
WI: MADISON,02/05/2021 18:30:00,41.00,1384.00,771.00,231.00,116.00,78.00,96.00,61.00,30.00,APPROVED
WI: MADISON,02/05/2021 19:30:00,43.00,1422.00,818.00,244.00,129.00,82.00,101.00,62.00,32.00,APPROVED
WI: MADISON,02/05/2021 20:30:00,44.00,1448.00,836.00,252.00,137.00,85.00,107.00,65.00,32.00,APPROVED
WI: MADISON,02/05/2021 21:30:00,46.00,1437.00,845.00,250.00,134.00,85.00,108.00,68.00,32.00,APPROVED
WI: MADISON,02/05/2021 22:30:00,44.00,1421.00,827.00,248.00,134.00,84.00,106.00,64.00,33.00,APPROVED
WI: MADISON,02/05/2021 23:31:00,44.00,1405.00,808.00,243.00,130.00,82.00,106.00,64.00,33.00,APPROVED
WI: MADISON,02/06/2021 00:31:00,43.00,1409.00,804.00,246.00,129.00,83.00,106.00,65.00,31.00,APPROVED
WI: MADISON,02/06/2021 01:31:00,43.00,1398.00,801.00,243.00,124.00,81.00,103.00,60.00,30.00,APPROVED
WI: MADISON,02/06/2021 02:31:00,43.00,1398.00,796.00,245.00,128.00,81.00,104.00,62.00,32.00,APPROVED
WI: MADISON,02/06/2021 03:31:00,41.00,1395.00,798.00,250.00,124.00,84.00,104.00,61.00,32.00,APPROVED
WI: MADISON,02/06/2021 04:32:00,42.00,1382.00,794.00,244.00,127.00,82.00,102.00,62.00,32.00,APPROVED
WI: MADISON,02/06/2021 05:32:00,43.00,1390.00,793.00,242.00,128.00,83.00,103.00,60.00,32.00,APPROVED
WI: MADISON,02/06/2021 06:32:00,44.00,1383.00,789.00,247.00,125.00,80.00,103.00,61.00,32.00,APPROVED
WI: MADISON,02/06/2021 07:32:00,42.00,1391.00,798.00,246.00,124.00,81.00,106.00,59.00,32.00,APPROVED
WI: MADISON,02/06/2021 08:32:00,41.00,1391.00,804.00,249.00,124.00,82.00,105.00,62.00,31.00,APPROVED
WI: MADISON,02/06/2021 09:33:00,42.00,1392.00,812.00,251.00,127.00,82.00,108.00,61.00,31.00,APPROVED
WI: MADISON,02/06/2021 10:33:00,44.00,1390.00,797.00,249.00,125.00,84.00,107.00,60.00,33.00,APPROVED
WI: MADISON,02/06/2021 11:33:00,40.00,1365.00,791.00,246.00,127.00,81.00,104.00,60.00,31.00,APPROVED
WI: MADISON,02/06/2021 12:33:00,42.00,1373.00,774.00,242.00,123.00,80.00,102.00,60.00,32.00,APPROVED
WI: MADISON,02/06/2021 13:34:00,40.00,1364.00,756.00,240.00,119.00,82.00,104.00,58.00,31.00,APPROVED